Regional Weather Roundup
Issued by NWS Midland/Odessa, TX

Skip options and go directly to product.
Home | Oldest Version | Next Version | Current Version | All | Text Only | Save Text | Print | Product List | Glossary On

Skip product version selection by date and time.   
997
ASUS44 KMAF 040401
RWRMAF
MIDLAND AREA WEATHER ROUNDUP
NATIONAL WEATHER SERVICE MIDLAND TX
1100 PM CDT MON AUG 03 2015

...IN SOUTHWEST TEXAS AND SOUTHEAST NEW MEXICO...

CITY           SKY/WX    TMP DP  RH WIND       PRES   REMARKS
ALPINE         MOCLDY    76  60  57 NE17G26   30.17R
ANDREWS        RAIN      70  70 100 E6        30.09S
ARTESIA        NOT AVBL
BIG SPRING     CLOUDY    75  65  70 W21G30    30.05R
CARLSBAD       MOCLDY    74  62  66 SE6       30.00R
DRYDEN           N/A     88  57  34 SE8       29.93R
FORT STOCKTON  CLOUDY    76  65  68 N10       30.04R
GUAD PASS      CLOUDY    70  57  63 SW13      30.16R
HOBBS            N/A    N/A N/A N/A MISG        N/A
MARFA          MOCLDY    75  57  53 NE17      30.14R
MIDLAND AIRPK  CLOUDY    73  68  84 NW14G22   30.06R
MIDLAND INTL   CLOUDY    73  68  84 N17       30.05R
ODESSA         HVY RAIN  70  67  90 N18G24    30.05R FOG
PECOS          CLOUDY    77  64  63 NE15      29.99S
PRESIDIO       CLOUDY    89  57  33 MISG      29.91R
SEMINOLE       LGT RAIN  69  67  95 SE13      30.08R
SNYDER         PTCLDY    84  61  46 SE7       29.95R
WINK           CLOUDY    73  68  84 E12       29.98R
$$
...OTHER STATIONS IN TEXAS...

CITY           SKY/WX    TMP DP  RH WIND       PRES   REMARKS
ABILENE        CLEAR     84  62  47 SE10      29.94R
AMARILLO       PTCLDY    74  68  81 SE7       30.04R
AUSTIN         CLEAR     81  66  60 S8        29.90R
BROWNSVILLE    PTCLDY    83  77  82 SE16      29.89R
CORPUS CHRISTI MOCLDY    82  77  84 SE10      29.89R
DALLAS FTW     PTCLDY    87  60  40 SE7       29.89R
DEL RIO        CLEAR     89  60  37 E8        29.87R
EL PASO        MOCLDY    79  61  53 S20G35    30.05R
HOUSTON INT    PTCLDY    83  73  72 S5        29.90R
LUBBOCK        CLOUDY    74  64  71 S17       30.00R
SAN ANGELO     CLEAR     87  60  40 SE7       29.93R
SAN ANTONIO    PTCLDY    86  71  60 SE14      29.92R
WACO           CLEAR     86  62  44 SE7       29.90R
WICHITA FALLS  NOT AVBL
$$
...OTHER LOCATIONS IN NEW MEXICO...

CITY           SKY/WX    TMP DP  RH WIND       PRES   REMARKS
ALAMAGORDO     PTCLDY    81  55  41 S8        30.03R
ALBUQUERQUE    PTCLDY    81  45  28 N9        30.12R
CANNON AFB       N/A     69  64  84 SW5       30.04R
CLOVIS         PTCLDY    66  61  82 S5        30.05R
HOLLOMAN AFB   CLEAR     83  56  40 S16       30.01R
ROSWELL        CLEAR     71  65  81 S6        30.00R
RUIDOSO        NOT AVBL
SANTA FE       CLEAR     68  46  45 NW9       30.18R
TRUTH OR CONSE MOCLDY    83  54  36 SW3       30.06R
TUCUMCARI      PTCLDY    75  62  64 S10       29.97R
$$

USA.gov is the U.S. government's official web portal to all federal, state and local government web resources and services.